Weather History for New Ulm, MN

Change the Weather History Date:

Thursday, November 22, 2012

  Actual Average Record
Temperature  
Mean Temperature 42 °F -  
Max Temperature 57 °F 38 °F 60 °F (1998)
Min Temperature 26 °F 22 °F -2 °F (1996)
Degree Days  
Heating Degree Days 24    
Moisture  
Dew Point 35 °F    
Average Humidity 73    
Maximum Humidity 93    
Minimum Humidity 62    
Precipitation  
Precipitation 0.00 in - - ()
Sea Level Pressure  
Sea Level Pressure 29.80 in    
Wind  
Wind Speed 16 mph (West)    
Max Wind Speed 37 mph    
Max Gust Speed 44 mph    
Visibility 10 miles    
Events Snow    
Averages and records for this station are not official NWS values.
T = Trace of Precipitation, MM = Missing Value Source: NWS Daily Summary

Daily Weather History Graph

Daily Weather History Graph

Search for Another Location

Airport:

Trip Planner

Search our weather history database for the weather conditions in past years. The results will help you decide how hot, cold, wet, or windy it might be!

Date:

Astronomy

Nov. 22, 2012 Rise Set
Actual Time 7:23 AM CST 4:44 PM CST
Civil Twilight 6:51 AM CST 5:16 PM CST
Nautical Twilight 6:15 AM CST 5:52 PM CST
Astronomical Twilight 5:41 AM CST 6:26 PM CST
Moon 1:40 PM CST (11/22) 1:32 AM CST (11/22)
Length of Visible Light 10h 25m
Length of Day
9h 21m
Waxing Gibbous, 71% of the Moon is Illuminated
Nov 22
Waxing Gibbous
Nov 28
Full
Dec 6
Last Quarter
Dec 13
New
Dec 19
First Quarter

Hourly Weather History & Observations

Time (CST) Temp. Windchill Dew Point Humidity Pressure Visibility Wind Dir Wind Speed Gust Speed Precip Events Conditions
12:13 AM 53.6 °F - 44.6 °F 72% 29.66 in 10.0 mi South 12.7 mph - N/A   Clear
12:33 AM 53.6 °F - 44.6 °F 72% 29.65 in 10.0 mi SSW 12.7 mph - N/A   Clear
12:53 AM 53.6 °F - 44.6 °F 72% 29.64 in 10.0 mi South 11.5 mph - N/A   Clear
1:13 AM 55.4 °F - 44.6 °F 67% - 10.0 mi South 12.7 mph - N/A   Clear
1:33 AM 55.4 °F - 44.6 °F 67% 29.63 in 10.0 mi South 13.8 mph - N/A   Clear
1:52 AM 55.4 °F - 44.6 °F 67% 29.62 in 10.0 mi South 13.8 mph - N/A   Clear
2:13 AM 57.2 °F - 44.6 °F 63% 29.62 in 10.0 mi SSW 15.0 mph - N/A   Clear
2:33 AM 55.4 °F - 44.6 °F 67% 29.63 in 10.0 mi SSW 12.7 mph - N/A   Clear
2:53 AM 53.6 °F - 44.6 °F 72% 29.62 in 10.0 mi South 10.4 mph - N/A   Clear
3:13 AM 51.8 °F - 44.6 °F 76% 29.62 in 10.0 mi South 8.1 mph - N/A   Clear
3:32 AM 51.8 °F - 44.6 °F 76% 29.62 in 10.0 mi South 8.1 mph - N/A   Clear
3:53 AM 51.8 °F - 44.6 °F 76% 29.62 in 10.0 mi South 6.9 mph - N/A   Clear
4:13 AM 53.6 °F - 44.6 °F 72% 29.62 in 10.0 mi SW 8.1 mph - N/A   Clear
4:32 AM 55.4 °F - 44.6 °F 67% 29.60 in 10.0 mi SSW 12.7 mph - N/A   Clear
4:53 AM 53.6 °F - 44.6 °F 72% 29.61 in 10.0 mi SW 11.5 mph - N/A   Clear
5:13 AM 53.6 °F - 44.6 °F 72% 29.61 in 10.0 mi SW 10.4 mph - N/A   Clear
5:32 AM 51.8 °F - 44.6 °F 76% 29.61 in 10.0 mi SW 10.4 mph - N/A   Clear
5:53 AM 51.8 °F - 44.6 °F 76% 29.61 in 10.0 mi SSW 9.2 mph - N/A   Clear
6:13 AM 51.8 °F - 42.8 °F 71% 29.63 in 10.0 mi SW 8.1 mph - N/A   Clear
6:33 AM 50.0 °F - 42.8 °F 76% 29.63 in 10.0 mi SW 9.2 mph - N/A   Clear
6:53 AM 50.0 °F - 42.8 °F 76% 29.63 in 10.0 mi SW 8.1 mph - N/A   Clear
7:13 AM 48.2 °F - 42.8 °F 82% 29.63 in 10.0 mi SW 8.1 mph - N/A   Clear
7:53 AM 48.2 °F - 41.0 °F 76% 29.64 in 10.0 mi WSW 5.8 mph - N/A   Clear
8:12 AM 48.2 °F - 41.0 °F 76% 29.65 in 10.0 mi WSW 9.2 mph - N/A   Clear
8:33 AM 46.4 °F 42.9 °F 39.2 °F 76% 29.65 in 10.0 mi West 6.9 mph - N/A   Clear
8:53 AM 48.2 °F - 39.2 °F 71% 29.64 in 10.0 mi West 8.1 mph - N/A   Clear
9:12 AM 50.0 °F - 37.4 °F 62% 29.66 in 10.0 mi WNW 16.1 mph 19.6 mph N/A   Clear
9:53 AM 50.0 °F - 37.4 °F 62% 29.68 in 10.0 mi NW 20.7 mph - N/A   Clear
10:12 AM 48.2 °F - 37.4 °F 66% 29.70 in 10.0 mi NW 18.4 mph 24.2 mph N/A   Clear
10:33 AM 46.4 °F 38.5 °F 37.4 °F 71% 29.71 in 10.0 mi NW 21.9 mph 28.8 mph N/A   Clear
10:53 AM 44.6 °F 35.1 °F 37.4 °F 76% 29.72 in 10.0 mi WNW 27.6 mph 31.1 mph N/A   Clear
11:12 AM 46.4 °F 37.2 °F 37.4 °F 71% 29.72 in 10.0 mi NW 29.9 mph 34.5 mph N/A   Clear
11:53 AM 42.8 °F 34.3 °F 35.6 °F 76% 29.74 in 10.0 mi NW 19.6 mph 28.8 mph N/A   Clear
12:13 PM 41.0 °F 30.2 °F 33.8 °F 76% 29.75 in 10.0 mi NW 27.6 mph 34.5 mph N/A   Clear
12:33 PM 42.8 °F 33.1 °F 33.8 °F 70% 29.77 in 10.0 mi WNW 25.3 mph 33.4 mph N/A   Scattered Clouds
12:53 PM 42.8 °F 33.3 °F 33.8 °F 70% 29.79 in 10.0 mi WNW 24.2 mph 32.2 mph N/A   Scattered Clouds
1:13 PM 42.8 °F 33.3 °F 33.8 °F 70% 29.79 in 10.0 mi NW 24.2 mph 32.2 mph N/A   Mostly Cloudy
1:33 PM 42.8 °F 33.3 °F 33.8 °F 70% 29.81 in 10.0 mi NW 24.2 mph 38.0 mph N/A   Overcast
1:53 PM 42.8 °F 31.8 °F 33.8 °F 70% 29.83 in 10.0 mi NW 33.4 mph 36.8 mph N/A   Overcast
2:13 PM 41.0 °F 30.7 °F 32.0 °F 70% 29.83 in 10.0 mi NW 25.3 mph 34.5 mph N/A   Overcast
2:33 PM 41.0 °F 30.2 °F 30.2 °F 65% 29.85 in 10.0 mi NW 27.6 mph 35.7 mph N/A   Overcast
2:52 PM 41.0 °F 30.9 °F 32.0 °F 70% 29.86 in 10.0 mi NW 24.2 mph 32.2 mph N/A   Light Drizzle
3:13 PM 35.6 °F 24.8 °F 32.0 °F 87% 29.88 in 4.0 mi NW 19.6 mph 32.2 mph N/A Snow Light Snow
3:33 PM 35.6 °F 24.8 °F 33.8 °F 93% 29.90 in 10.0 mi NW 19.6 mph 27.6 mph N/A Snow Light Snow
3:52 PM 35.6 °F 24.5 °F 33.8 °F 93% 29.91 in 10.0 mi WNW 20.7 mph 25.3 mph N/A   Mostly Cloudy
4:13 PM 37.4 °F 27.8 °F 33.8 °F 87% 29.92 in 10.0 mi WNW 17.3 mph 23.0 mph N/A   Overcast
4:33 PM 37.4 °F 26.9 °F 33.8 °F 87% 29.93 in 10.0 mi NW 20.7 mph 27.6 mph N/A   Mostly Cloudy
4:52 PM 37.4 °F 26.6 °F 32.0 °F 81% 29.93 in 10.0 mi NW 21.9 mph 35.7 mph N/A   Mostly Cloudy
5:13 PM 37.4 °F 27.8 °F 32.0 °F 81% 29.95 in 10.0 mi WNW 17.3 mph 27.6 mph N/A   Overcast
5:33 PM 37.4 °F 27.2 °F 32.0 °F 81% 29.95 in 10.0 mi WNW 19.6 mph 24.2 mph N/A   Overcast
5:52 PM 37.4 °F 25.6 °F 30.2 °F 75% 29.96 in 10.0 mi WNW 26.5 mph 32.2 mph N/A   Overcast
6:13 PM 37.4 °F 25.2 °F 30.2 °F 75% 29.97 in 10.0 mi NW 28.8 mph 35.7 mph N/A   Overcast
6:33 PM 37.4 °F 27.2 °F 30.2 °F 75% 29.98 in 10.0 mi NW 19.6 mph 31.1 mph N/A   Overcast
6:53 PM 37.4 °F 26.9 °F 28.4 °F 70% 29.99 in 10.0 mi NW 20.7 mph 32.2 mph N/A   Overcast
7:13 PM 37.4 °F 25.6 °F 26.6 °F 65% 29.99 in 10.0 mi NW 26.5 mph 36.8 mph N/A   Overcast
8:13 PM 33.8 °F 21.6 °F 26.6 °F 75% 30.01 in 10.0 mi NW 23.0 mph 34.5 mph N/A   Overcast
8:33 PM 33.8 °F 21.3 °F 26.6 °F 75% 30.02 in 10.0 mi NW 24.2 mph 35.7 mph N/A   Overcast
8:53 PM 33.8 °F 19.9 °F 23.0 °F 65% 30.03 in 10.0 mi NW 31.1 mph 40.3 mph N/A   Overcast
9:13 PM 32.0 °F 17.6 °F 21.2 °F 64% 30.03 in 10.0 mi NW 29.9 mph 36.8 mph N/A   Overcast
9:33 PM 32.0 °F 18.6 °F 21.2 °F 64% 30.03 in 10.0 mi NW 25.3 mph 35.7 mph N/A   Overcast
9:53 PM 32.0 °F 17.6 °F 21.2 °F 64% 30.03 in 10.0 mi WNW 29.9 mph 34.5 mph N/A   Overcast
10:13 PM 30.2 °F 16.2 °F 21.2 °F 69% 30.04 in 10.0 mi NW 25.3 mph 39.1 mph N/A   Overcast
10:33 PM 30.2 °F 14.7 °F 21.2 °F 69% 30.05 in 10.0 mi NW 32.2 mph 36.8 mph N/A   Overcast
10:53 PM 28.4 °F 12.5 °F 21.2 °F 74% 30.06 in 10.0 mi NW 31.1 mph 36.8 mph N/A   Overcast
11:13 PM 28.4 °F 13.0 °F 19.4 °F 69% 30.07 in 10.0 mi NW 28.8 mph 36.8 mph N/A   Overcast
11:32 PM 26.6 °F 8.9 °F 17.6 °F 69% 30.08 in 10.0 mi NW 36.8 mph 43.7 mph N/A   Mostly Cloudy
11:53 PM 26.6 °F 10.8 °F 17.6 °F 69% 30.09 in 10.0 mi WNW 27.6 mph 41.4 mph N/A   Overcast